PEGASUS R/B

Satellite information

Favourite Embed

Satellite Type and Status

ROCKET BODYIN ORBIT

Key statistics

Satellite PEGASUS R/B at a glance.

Uptime

10770

Days in orbit

Revolutions

≈ 14.3

Per day

Orbit

SSO

Sun Synchronous Orbit

Inclination

90.0

Latest

Satellite identification and parameters

Extended collection of information and parameters for PEGASUS R/B.

Object identification

Identified? True

Debris? False

Object name: PEGASUS R/B

International designator: 1996-014B

Object number (NORAD): 23815

Object ID (CCSDS): 23815

Country: UNITED STATES OF AMERICA (US)

Current information (Y/N): Y

RCS size: LARGE

Orbital parameters

Period: 101.011 minutes

Inclination: 90.008 deg

SMA: 7184.634 km

Apoapsis: 822.117 km

Periapsis: 790.881 km

RAAN: 338.8748 deg

Eccentricy: 0.00217381

Argument of periapsis: 4.4234 deg

Mean anomaly: 355.7147 deg

Mean motion: 14.25593795 rev/day

Mean motion (dot): 0.00000318 rev/day2

B* drag term: 0.0001292361 1/REarth

Two-line elements (TLE)

Creation date: Sept. 3, 2025, 2:21 a.m.

Reference frame: TEME

Reference center: EARTH

Epoch: Sept. 2, 2025, 7:37 p.m. UTC

TLE line 0: 0 PEGASUS R/B

TLE line 1: 1 23815U 96014B 25245.81758160 .00000318 00000-0 12924-3 0 9996

TLE line 2: 2 23815 90.0080 338.8748 0021738 4.4234 355.7147 14.25593795532717

Live tracking on map

Real-time ground track for satellite PEGASUS R/B.

In-orbit conjunctions

A list of the most updated potential collisions computed for object PEGASUS R/B.

Target Orbit TCA Probability of collision Miss distance Type
CZ-6A DEB LEO 2025-06-08 02:42:05 0.0001374611 526.0 (m) DEBRIS
FENGYUN 1C DEB SSO 2025-04-03 16:41:26 0.0001708179 161.0 (m) DEBRIS
CZ-6A DEB LEO 2025-04-03 09:02:05 0.0001719306 658.0 (m) DEBRIS
THOR BURNER 2 R/B SSO 2025-03-17 11:55:44 0.000168029 87.0 (m) ROCKET BODY
CZ-6A R/B LEO 2024-10-12 17:19:02 0.000142887 733.0 (m) ROCKET BODY

Associated space launch

PEGASUS R/B was lifted into orbit during the mission ‘Pegasus XL | REX II’, on board a Pegasus XL space rocket.

The launch took place on March 9, 1996, 1:33 a.m. from Vandenberg Space Force Base.

For more information about the launch, click the button.

Launch to space Pegasus XL | REX II
Pegasus XL | REX II

Agency: N/A

Status: Launch Successful

Launch date: March 9, 1996, 1:33 a.m. UTC

Rocket: Pegasus XL

Launch pad: Vandenberg Space Force Base

Location: Air launch to orbit

...

Latest news about this satellite

There are no fresh news available about this satellite. Check back as we update our databases every day.


Newsletter sign-up

Weekly statistics, charts and insights to help you stay on top of the space industry.